FW0932 Weather Reports


time (UTC)temp
C
wind
direction
speed
KPH
gust
KPH
rain 1hr
cm
rain 24hr
cm
rain mn
cm
humidity
%
barometer
mb
20260505032204 21 333 1.6 3.2 0.18 1.04 1.02 93 1015.6
20260505031203 21 355 0.0 3.2 0.18 1.02 0.99 93 1015.7
20260505030703 21 11 0.0 3.2 0.15 0.99 0.99 93 1015.8
20260505030203 21 58 0.0 0.0 0.15 0.99 0.97 93 1015.8
20260505025704 21 56 0.0 0.0 0.15 0.97 0.94 93 1015.9
20260505025204 21 53 0.0 1.6 0.15 0.94 0.91 93 1016.0
20260505024703 21 48 0.0 1.6 0.15 0.91 0.89 93 1015.9
20260505024203 21 15 0.0 1.6 0.15 0.89 0.89 93 1016.0
20260505023204 20 7 0.0 3.2 0.18 0.89 0.89 93 1016.0
20260505022703 20 59 1.6 4.8 0.20 0.89 0.86 93 1016.0
20260505022203 20 315 0.0 4.8 0.20 0.86 0.84 93 1016.0
20260505021203 20 0 1.6 4.8 0.23 0.84 0.81 93 1016.0
20260505015704 21 301 1.6 3.2 0.33 0.81 0.79 93 1015.9
20260505015203 20 354 1.6 4.8 0.38 0.79 0.79 93 1015.8
20260505014703 20 316 1.6 3.2 0.38 0.79 0.76 93 1015.7
20260505014203 20 75 1.6 3.2 0.41 0.76 0.74 93 1015.8
20260505013703 20 62 3.2 4.8 0.41 0.74 0.71 92 1015.7
20260505013203 20 53 3.2 4.8 0.41 0.71 0.71 92 1015.8
20260505012703 20 54 3.2 4.8 0.38 0.69 0.66 92 1015.8
20260505012203 20 13 1.6 3.2 0.36 0.66 0.64 92 1015.8
20260505011703 21 16 1.6 4.8 0.36 0.61 0.61 92 1015.9
20260505011203 21 66 0.0 3.2 0.43 0.61 0.58 92 1015.7
20260505010703 21 73 1.6 4.8 0.43 0.56 0.53 92 1015.8
20260505010203 21 47 0.0 3.2 0.51 0.51 0.51 91 1015.7
20260505005703 21 56 0.0 3.2 0.46 0.48 0.46 91 1015.8
20260505004703 21 31 1.6 3.2 0.38 0.41 0.38 90 1015.8
20260505004203 21 15 0.0 4.8 0.33 0.36 0.33 91 1015.7
20260505003703 21 16 1.6 4.8 0.33 0.33 0.33 90 1015.6
20260505003203 21 68 1.6 4.8 0.30 0.33 0.30 90 1015.6
20260505002703 21 43 1.6 4.8 0.28 0.30 0.28 90 1015.4
20260505002203 21 45 1.6 4.8 0.28 0.30 0.28 90 1015.3
20260505001204 21 126 3.2 9.7 0.15 0.18 0.15 88 1015.3
20260505000703 21 98 4.8 11.3 0.10 0.13 0.10 86 1015.2
20260505000204 22 69 3.2 4.8 0.00 0.03 0.00 85 1015.3
20260504235703 22 78 0.0 3.2 0.00 0.03 0.00 85 1015.1
20260504235203 21 68 0.0 1.6 0.00 0.03 0.00 85 1015.2
20260504234704 21 69 1.6 3.2 0.00 0.03 0.00 85 1015.0
20260504234203 21 73 1.6 4.8 0.00 0.03 0.00 85 1014.9
20260504233703 21 57 1.6 4.8 0.00 0.03 0.00 85 1014.9
20260504233204 21 90 3.2 11.3 0.00 0.03 0.00 85 1014.8
20260504232703 21 75 1.6 8.0 0.00 0.03 0.00 86 1014.8
20260504232203 21 87 1.6 4.8 0.00 0.03 0.00 86 1014.7
20260504231703 21 69 0.0 3.2 0.00 0.03 0.00 86 1014.8
20260504231203 21 1 3.2 4.8 0.00 0.03 0.00 86 1014.7
20260504230703 21 158 6.4 19.3 0.00 0.03 0.00 86 1014.6
20260504230204 21 87 4.8 19.3 0.00 0.03 0.00 86 1014.5
20260504225703 21 105 4.8 12.9 0.00 0.03 0.00 86 1014.4
20260504225204 21 90 6.4 19.3 0.00 0.03 0.00 85 1014.4
20260504224203 21 64 3.2 8.0 0.00 0.03 0.00 85 1014.6
20260504223704 21 65 1.6 9.7 0.00 0.03 0.00 84 1014.4
20260504223203 22 64 4.8 9.7 0.00 0.03 0.00 85 1014.4
20260504222704 21 87 3.2 4.8 0.00 0.03 0.00 85 1014.5
20260504222203 21 48 4.8 8.0 0.00 0.03 0.00 84 1014.4
20260504221203 22 90 3.2 11.3 0.00 0.03 0.00 83 1014.4
20260504220703 22 64 3.2 11.3 0.00 0.03 0.00 82 1014.4
20260504220203 22 114 3.2 9.7 0.00 0.03 0.00 81 1014.3
20260504215703 22 42 3.2 11.3 0.00 0.03 0.00 81 1014.2
20260504215204 22 74 4.8 12.9 0.00 0.03 0.00 81 1014.1
20260504213703 22 57 3.2 11.3 0.00 0.03 0.00 81 1014.4
20260504213204 22 77 4.8 12.9 0.00 0.03 0.00 81 1014.3
20260504212703 22 81 4.8 12.9 0.00 0.03 0.00 81 1014.3
20260504212203 22 87 3.2 9.7 0.00 0.03 0.00 82 1014.1
20260504211703 22 90 3.2 11.3 0.00 0.03 0.00 81 1014.0
20260504211204 22 48 3.2 9.7 0.00 0.03 0.00 81 1014.1
20260504210704 22 112 3.2 12.9 0.00 0.03 0.00 81 1014.1
20260504210204 22 133 6.4 19.3 0.00 0.03 0.00 81 1014.0
20260504205204 22 86 6.4 12.9 0.00 0.03 0.00 82 1014.2
20260504204703 22 67 3.2 12.9 0.00 0.03 0.00 82 1014.2
20260504204203 22 53 4.8 9.7 0.00 0.03 0.00 82 1014.1
20260504203704 22 108 4.8 16.1 0.00 0.03 0.00 82 1014.1
20260504203203 22 81 4.8 11.3 0.00 0.03 0.00 82 1014.1
20260504202704 22 27 4.8 8.0 0.00 0.03 0.00 82 1014.2
20260504202203 22 97 8.0 14.5 0.00 0.03 0.00 82 1014.1
20260504201204 22 66 4.8 14.5 0.00 0.03 0.00 82 1014.1
20260504200703 22 55 4.8 19.3 0.00 0.03 0.00 82 1014.0
20260504200204 22 74 8.0 19.3 0.00 0.03 0.00 82 1014.0
20260504195704 22 79 8.0 16.1 0.00 0.03 0.00 82 1013.9
20260504195203 22 64 8.0 16.1 0.00 0.03 0.00 82 1013.7
20260504194703 22 90 8.0 16.1 0.00 0.03 0.00 82 1013.9
20260504194203 22 61 3.2 14.5 0.00 0.03 0.00 83 1014.0
20260504193704 22 95 0.0 8.0 0.00 0.03 0.00 83 1014.0
20260504193203 22 66 4.8 11.3 0.00 0.03 0.00 83 1014.0
20260504192703 22 94 8.0 14.5 0.00 0.03 0.00 83 1014.0
20260504192203 22 63 3.2 19.3 0.00 0.03 0.00 83 1014.0
20260504191704 22 62 6.4 14.5 0.00 0.03 0.00 83 1014.0
20260504191203 22 125 8.0 20.9 0.00 0.03 0.00 83 1014.1
20260504190704 22 78 4.8 16.1 0.00 0.03 0.00 84 1014.2
20260504190204 22 62 4.8 16.1 0.00 0.03 0.00 84 1014.1
20260504185704 22 59 8.0 19.3 0.00 0.03 0.00 83 1014.0
20260504184703 23 65 3.2 16.1 0.00 0.03 0.00 83 1014.0
20260504184204 23 88 6.4 12.9 0.00 0.03 0.00 83 1014.1
20260504183704 23 67 8.0 14.5 0.00 0.03 0.00 83 1014.1
20260504182703 23 70 8.0 16.1 0.00 0.03 0.00 83 1014.4
20260504182204 23 91 3.2 14.5 0.00 0.03 0.00 84 1014.4
20260504181704 23 63 4.8 14.5 0.00 0.03 0.00 84 1014.4
20260504181203 23 72 3.2 19.3 0.00 0.03 0.00 84 1014.4
20260504180703 23 87 11.3 19.3 0.00 0.03 0.00 83 1014.4
20260504180203 23 103 8.0 19.3 0.00 0.03 0.00 83 1014.6
20260504175704 23 72 4.8 14.5 0.00 0.03 0.00 83 1014.9
20260504174703 23 87 4.8 16.1 0.00 0.03 0.00 83 1015.1
20260504173703 23 81 4.8 9.7 0.00 0.03 0.00 83 1015.2
20260504173204 23 68 3.2 9.7 0.00 0.03 0.00 83 1015.3
20260504172704 23 90 3.2 9.7 0.00 0.03 0.00 83 1015.3
20260504172203 23 65 3.2 11.3 0.00 0.03 0.00 83 1015.3
20260504171704 23 69 3.2 9.7 0.00 0.03 0.00 83 1015.3
20260504171204 23 81 3.2 4.8 0.00 0.03 0.00 83 1015.3
20260504170703 23 61 6.4 12.9 0.00 0.03 0.00 83 1015.4
20260504170204 23 75 8.0 16.1 0.00 0.03 0.00 83 1015.6
20260504150703 23 64 8.0 14.5 0.00 0.05 0.03 84 1016.2
20260504150204 23 79 1.6 4.8 0.00 0.05 0.03 85 1016.2
20260504140704 23 31 3.2 8.0 0.00 0.05 0.03 86 1016.0
20260504140203 23 55 1.6 9.7 0.00 0.05 0.03 86 1016.0
20260504130204 23 96 4.8 12.9 0.00 0.25 0.03 86 1015.8
20260504110703 23 49 0.0 4.8 0.03 0.53 0.03 87 1014.8
20260504110202 23 26 3.2 8.0 0.03 0.53 0.03 86 1014.9
20260504100202 24 51 1.6 4.8 0.00 0.53 0.00 86 1014.9
20260504081703 25 80 3.2 8.0 0.00 0.56 0.00 79 1014.8
20260504081202 25 65 1.6 4.8 0.00 0.56 0.00 78 1014.9
20260504080703 25 64 0.0 4.8 0.00 0.56 0.00 78 1014.9
20260504080203 25 42 3.2 4.8 0.00 0.56 0.00 77 1014.9
20260504070203 26 295 1.6 4.8 0.00 0.56 0.00 74 1015.6
20260504050702 27 1 4.8 11.3 0.00 0.56 0.00 70 1016.1
20260504050203 27 348 3.2 9.7 0.00 0.56 0.00 70 1016.1
20260504045703 27 25 1.6 4.8 0.00 0.56 0.00 69 1016.1
20260504045203 28 85 3.2 4.8 0.00 0.56 0.00 68 1016.1
20260504044703 28 337 3.2 8.0 0.00 0.56 0.00 69 1016.1
20260504044203 27 28 1.6 4.8 0.00 0.56 0.00 68 1016.2
20260504043703 27 25 4.8 9.7 0.00 0.56 0.00 69 1016.2
20260504043203 27 71 1.6 4.8 0.00 0.56 0.00 70 1016.3
20260504042203 27 343 1.6 8.0 0.00 0.56 0.00 71 1016.2
20260504041703 26 23 1.6 8.0 0.00 0.56 0.00 72 1016.4
20260504041203 26 46 3.2 4.8 0.00 0.56 0.00 72 1016.4
20260504040702 25 87 1.6 4.8 0.00 0.56 0.00 73 1016.5
20260504040203 25 352 1.6 4.8 0.00 0.56 0.00 74 1016.5
20260504035203 25 349 0.0 4.8 0.00 0.56 0.00 73 1016.5
20260504033703 25 7 1.6 4.8 0.00 0.56 0.00 73 1016.6